Location: Bay Creek Structure Number 5 Dam
(37.4851°N, 88.6884°W)
Time: 04:19:01
(UTC+00:00)

STARLINK-44 - Pass Details

Date: 13 October 2019
Orbit: 548 x 551 km, 53.0° (Epoch: 19 November)

Event Time Altitude Azimuth Distance (km) Brightness Sun altitude
Rises 23:38:49 0° 234° (SW) 2,702 8.3 -4.4°
Reaches altitude 10° 23:41:03 10° 237° (WSW) 1,812 7.5 -4.8°
Maximum altitude 23:45:09 66° 319° (NW) 600 4.0 -5.7°
Drops below altitude 10° 23:49:16 10° 43° (NE) 1,823 5.8 -6.5°
Enters shadow 23:51:01 - 46° (NE) 2,517 6.5 -6.8°
